Location: Peebles
(55.6412°N, 3.1714°W)
Time: 19:52:10
(UTC+00:00)

Meteor 2-10 - Visible Passes

Search period start: 20 January 2022 00:00
Search period end: 30 January 2022 00:00
Orbit: 738 x 868 km, 81.2° (Epoch: 19 January)

Date Brightness Start Highest point End Pass type
(mag) Time Alt. Az. Time Alt. Az. Time Alt. Az.
20 Jan 6.8 03:17:07 12° ESE 03:19:20 15° E 03:22:27 10° NE visible
20 Jan 4.3 04:58:14 40° S 05:00:21 72° E 05:05:55 10° NNE visible
20 Jan 5.1 06:39:21 16° WSW 06:42:49 27° WNW 06:47:32 10° N visible
20 Jan 6.7 17:02:52 10° NW 17:06:28 19° W 17:09:58 10° SW visible
21 Jan 7.0 02:52:27 11° E 02:53:29 11° ENE 02:55:04 10° ENE visible
21 Jan 4.8 04:33:33 51° ESE 04:34:14 54° E 04:39:40 10° NNE visible
21 Jan 4.8 06:14:37 28° W 06:16:27 34° WNW 06:21:30 10° N visible
22 Jan 5.3 04:08:28 41° E 04:08:28 41° E 04:13:21 10° NNE visible
22 Jan 4.4 05:49:32 43° W 05:50:07 44° WNW 05:55:26 10° N visible
22 Jan 5.9 07:31:25 10° WNW 07:33:36 12° NW 07:35:47 10° NNW visible
23 Jan 5.9 03:43:13 29° ENE 03:43:13 29° ENE 03:46:58 10° NNE visible
23 Jan 4.2 05:24:15 56° NW 05:24:15 56° NW 05:29:19 10° N visible
23 Jan 5.7 07:05:18 13° WNW 07:07:03 15° NW 07:10:12 10° NNW visible
24 Jan 6.4 03:17:48 21° ENE 03:17:48 21° ENE 03:20:30 10° NE visible
24 Jan 4.5 04:58:50 55° N 04:58:50 55° N 05:03:10 10° NNE visible
24 Jan 5.5 06:39:52 18° WNW 06:40:32 19° NW 06:44:22 10° N visible
25 Jan 6.8 02:52:17 15° ENE 02:52:17 15° ENE 02:53:51 10° NE visible
25 Jan 5.0 04:33:19 44° NNE 04:33:19 44° NNE 04:36:58 10° NNE visible
25 Jan 5.3 06:14:21 23° NW 06:14:21 23° NW 06:18:27 10° N visible
26 Jan 7.1 02:26:43 10° NE 02:26:43 10° NE 02:26:53 10° NE visible
26 Jan 5.5 04:07:44 33° NNE 04:07:44 33° NNE 04:10:45 10° NNE visible
26 Jan 5.2 05:48:46 27° NW 05:48:46 27° NW 05:52:27 10° N visible
27 Jan 6.0 03:42:06 25° NE 03:42:06 25° NE 03:44:28 10° NNE visible
27 Jan 5.2 05:23:07 30° NNW 05:23:07 30° NNW 05:26:24 10° N visible
27 Jan 6.0 07:04:08 10° NW 07:04:57 10° NW 07:05:49 10° NNW visible
28 Jan 6.4 03:16:24 19° NE 03:16:24 19° NE 03:18:08 10° NNE visible
28 Jan 5.3 04:57:25 30° N 04:57:25 30° N 05:00:18 10° N visible
28 Jan 5.9 06:38:26 13° NW 06:38:26 13° NW 06:40:49 10° NNW visible
29 Jan 6.8 02:50:40 15° NE 02:50:40 15° NE 02:51:42 10° NNE visible
29 Jan 5.6 04:31:41 28° N 04:31:41 28° N 04:34:10 10° N visible
29 Jan 5.8 06:12:42 16° NW 06:12:42 16° NW 06:15:09 10° N visible
